CW3001 Weather Reports


time (UTC)temp
F
wind
direction
speed
knots
gust
knots
rain 1hr
in
rain 24hr
in
rain mn
in
humidity
%
barometer
mb
20260509231430 52 16 3.5 5.2 0.00 0.00 0.00 73 1016.0
20260509230946 52 11 3.5 5.2 0.00 0.00 0.00 72 1015.9
20260509230432 52 14 3.5 5.2 0.00 0.00 0.00 72 1016.0
20260509225929 52 13 2.6 4.3 0.00 0.00 0.00 72 1016.1
20260509225430 52 11 2.6 4.3 0.00 0.00 0.00 72 1016.1
20260509224931 53 13 2.6 3.5 0.00 0.00 0.00 72 1016.1
20260509224536 53 8 1.7 3.5 0.00 0.00 0.00 71 1016.1
20260509224507 53 10 1.7 3.5 0.00 0.00 0.00 71 1016.1
20260509223434 53 1 2.6 3.5 0.00 0.00 0.00 70 1016.1
20260509222932 53 10 1.7 3.5 0.00 0.00 0.00 70 1016.2
20260509222431 54 10 2.6 3.5 0.00 0.00 0.00 69 1016.2
20260509222252 54 8 1.7 3.5 0.00 0.00 0.00 69 1016.2
20260509221954 54 3 2.6 3.5 0.00 0.00 0.00 69 1016.2
20260509220931 54 20 1.7 3.5 0.00 0.00 0.00 69 1016.3
20260509220430 54 31 1.7 2.6 0.00 0.00 0.00 69 1016.2
20260509220100 55 13 2.6 5.2 0.00 0.00 0.00 68 1016.2
20260509220021 54 16 1.7 5.2 0.00 0.00 0.00 68 1016.1
20260509214929 55 10 4.3 5.2 0.00 0.00 0.00 68 1016.1
20260509214431 55 16 1.7 3.5 0.00 0.00 0.00 68 1016.1
20260509213945 55 25 1.7 2.6 0.00 0.00 0.00 67 1016.0
20260509213435 55 25 1.7 3.5 0.00 0.00 0.00 67 1016.1
20260509212930 55 20 1.7 4.3 0.00 0.00 0.00 66 1016.1
20260509212736 56 13 2.6 4.3 0.00 0.00 0.00 66 1016.0
20260509211930 56 17 1.7 3.5 0.00 0.00 0.00 66 1016.0
20260509211704 56 16 1.7 3.5 0.00 0.00 0.00 65 1016.1
20260509210930 56 16 1.7 3.5 0.00 0.00 0.00 64 1016.0
20260509210715 57 30 1.7 3.5 0.00 0.00 0.00 63 1016.1
20260509205929 57 38 1.7 4.3 0.00 0.00 0.00 63 1016.1
20260509205713 57 31 1.7 4.3 0.00 0.00 0.00 62 1016.2
20260509205217 58 32 2.6 4.3 0.00 0.00 0.00 61 1016.2
20260509204431 58 54 1.7 4.3 0.00 0.00 0.00 61 1016.1
20260509204222 58 38 2.6 4.3 0.00 0.00 0.00 61 1016.2
20260509203429 58 28 2.6 4.3 0.00 0.00 0.00 61 1016.3
20260509202930 58 28 1.7 4.3 0.00 0.00 0.00 61 1016.2
20260509202430 58 39 1.7 5.2 0.00 0.00 0.00 60 1016.3
20260509202211 58 51 2.6 5.2 0.00 0.00 0.00 60 1016.2
20260509201443 59 18 1.7 4.3 0.00 0.00 0.00 59 1016.2
20260509200943 59 23 2.6 4.3 0.00 0.00 0.00 58 1016.3
20260509200430 60 47 2.6 4.3 0.00 0.00 0.00 57 1016.1
20260509195930 60 39 3.5 6.1 0.00 0.00 0.00 56 1016.0
20260509195429 60 34 3.5 6.1 0.00 0.00 0.00 56 1016.0
20260509194931 60 44 3.5 6.1 0.00 0.00 0.00 56 1016.1
20260509194431 60 30 2.6 6.1 0.00 0.00 0.00 56 1016.0
20260509193931 61 28 3.5 6.1 0.00 0.00 0.00 55 1016.1
20260509193430 61 17 3.5 6.1 0.00 0.00 0.00 55 1016.2
20260509192930 61 23 3.5 8.7 0.00 0.00 0.00 55 1016.1
20260509192429 61 24 2.6 8.7 0.00 0.00 0.00 55 1016.1
20260509191930 62 31 3.5 6.1 0.00 0.00 0.00 54 1016.0
20260509191430 62 25 2.6 7.8 0.00 0.00 0.00 54 1016.0
20260509190930 62 32 3.5 7.8 0.00 0.00 0.00 54 1015.9
20260509190733 62 0 4.3 6.1 0.00 0.00 0.00 53 1015.9
20260509185930 63 27 2.6 4.3 0.00 0.00 0.00 53 1015.9
20260509185430 63 37 1.7 4.3 0.00 0.00 0.00 53 1015.9
20260509184937 64 20 1.7 4.3 0.00 0.00 0.00 53 1015.8
20260509184431 64 16 1.7 4.3 0.00 0.00 0.00 52 1015.9
20260509183930 64 17 2.6 6.1 0.00 0.00 0.00 51 1015.8
20260509183431 65 0 3.5 6.1 0.00 0.00 0.00 51 1015.9
20260509182930 65 16 4.3 6.1 0.00 0.00 0.00 50 1015.7
20260509182439 65 27 2.6 4.3 0.00 0.00 0.00 50 1015.7
20260509181930 65 34 2.6 7.8 0.00 0.00 0.00 49 1015.6
20260509181431 65 10 3.5 7.8 0.00 0.00 0.00 48 1015.5
20260509181205 66 30 1.7 6.1 0.00 0.00 0.00 48 1015.7
20260509180431 66 34 1.7 7.8 0.00 0.00 0.00 48 1015.5
20260509180236 66 7 3.5 7.8 0.00 0.00 0.00 48 1015.5
20260509175431 66 37 3.5 5.2 0.00 0.00 0.00 48 1015.3
20260509174930 67 38 2.6 5.2 0.00 0.00 0.00 46 1015.3
20260509174432 67 28 2.6 5.2 0.00 0.00 0.00 46 1015.3
20260509173931 67 20 2.6 7.8 0.00 0.00 0.00 46 1015.3
20260509173430 67 14 2.6 7.8 0.00 0.00 0.00 46 1015.4
20260509172931 67 42 3.5 7.8 0.00 0.00 0.00 45 1015.3
20260509172431 67 38 2.6 7.8 0.00 0.00 0.00 46 1015.4
20260509171930 67 32 3.5 6.1 0.00 0.00 0.00 45 1015.4
20260509171715 67 13 2.6 7.8 0.00 0.00 0.00 44 1015.3
20260509170931 68 37 3.5 7.8 0.00 0.00 0.00 44 1015.2
20260509170436 68 34 3.5 9.6 0.00 0.00 0.00 43 1015.3
20260509165931 68 52 6.1 9.6 0.00 0.00 0.00 44 1015.4
20260509165432 68 48 6.1 9.6 0.00 0.00 0.00 43 1015.5
20260509164947 68 41 3.5 9.6 0.00 0.00 0.00 44 1015.3
20260509164748 68 23 2.6 6.1 0.00 0.00 0.00 44 1015.4
20260509163932 68 55 3.5 6.1 0.00 0.00 0.00 43 1015.4
20260509163439 69 58 4.3 9.6 0.00 0.00 0.00 43 1015.5
20260509163212 69 55 3.5 9.6 0.00 0.00 0.00 42 1015.6
20260509162430 69 102 3.5 8.7 0.00 0.00 0.00 45 1015.5
20260509161931 69 37 4.3 8.7 0.00 0.00 0.00 42 1015.4
20260509161429 69 10 5.2 8.7 0.00 0.00 0.00 43 1015.3
20260509160930 70 21 4.3 8.7 0.00 0.00 0.00 43 1015.4
20260509160430 69 0 4.3 6.1 0.00 0.00 0.00 43 1015.3
20260509155930 70 331 2.6 5.2 0.00 0.00 0.00 43 1015.4
20260509155820 70 4 3.5 6.1 0.00 0.00 0.00 41 1015.5
20260509155800 70 78 1.7 6.1 0.00 0.00 0.00 43 1015.5
20260509154430 70 87 1.7 4.3 0.00 0.00 0.00 42 1015.5
20260509153935 70 96 3.5 6.1 0.00 0.00 0.00 42 1015.5
20260509153430 70 79 2.6 6.1 0.00 0.00 0.00 41 1015.5
20260509152930 70 48 3.5 6.1 0.00 0.00 0.00 41 1015.6
20260509152436 70 39 2.6 3.5 0.00 0.00 0.00 43 1015.7
20260509152234 70 138 0.0 5.2 0.00 0.00 0.00 42 1015.7
20260509151508 70 31 3.5 8.7 0.00 0.00 0.00 44 1015.6
20260509151452 70 76 2.6 8.7 0.00 0.00 0.00 44 1015.7
20260509150429 70 20 4.3 8.7 0.00 0.00 0.00 44 1015.8
20260509145931 70 13 3.5 9.6 0.00 0.00 0.00 43 1015.7
20260509145431 70 52 6.1 9.6 0.00 0.00 0.00 44 1015.8
20260509144932 71 8 4.3 8.7 0.00 0.00 0.00 42 1015.7
20260509144431 71 103 3.5 5.2 0.00 0.00 0.00 41 1015.8
20260509143930 70 51 3.5 5.2 0.00 0.00 0.00 41 1015.8
20260509143740 70 56 1.7 4.3 0.00 0.00 0.00 40 1015.9
20260509142946 71 317 2.6 6.1 0.00 0.00 0.00 42 1016.0
20260509142431 70 341 3.5 6.1 0.00 0.00 0.00 45 1016.0
20260509141929 70 21 3.5 5.2 0.00 0.00 0.00 44 1016.0
20260509141431 69 357 2.6 6.1 0.00 0.00 0.00 47 1016.0
20260509140931 69 47 2.6 7.8 0.00 0.00 0.00 45 1016.1
20260509140430 68 45 3.5 7.8 0.00 0.00 0.00 45 1016.2
20260509135929 68 63 2.6 7.8 0.00 0.00 0.00 44 1016.3
20260509135430 69 10 2.6 6.1 0.00 0.00 0.00 43 1016.1
20260509134930 70 39 3.5 6.1 0.00 0.00 0.00 42 1016.2
20260509134441 71 32 2.6 6.1 0.00 0.00 0.00 43 1016.2
20260509133937 70 94 1.7 6.1 0.00 0.00 0.00 40 1016.4
20260509133432 70 27 3.5 6.1 0.00 0.00 0.00 42 1016.4
20260509132933 70 31 3.5 6.1 0.00 0.00 0.00 43 1016.6
20260509132429 70 41 2.6 3.5 0.00 0.00 0.00 42 1016.5
20260509131930 69 35 0.0 3.5 0.00 0.00 0.00 44 1016.7
20260509131431 69 345 1.7 3.5 0.00 0.00 0.00 44 1016.8
20260509130929 69 343 2.6 5.2 0.00 0.00 0.00 44 1016.8
20260509130429 68 17 3.5 6.1 0.00 0.00 0.00 45 1017.0
20260509130008 68 18 1.7 8.7 0.00 0.00 0.00 43 1017.0
20260509125428 69 32 4.3 8.7 0.00 0.00 0.00 45 1017.0
20260509124929 70 23 4.3 7.8 0.00 0.00 0.00 44 1017.0
20260509124428 69 90 2.6 6.1 0.00 0.00 0.00 45 1017.0
20260509123930 69 32 4.3 6.1 0.00 0.00 0.00 47 1017.1
20260509123428 68 114 0.9 7.8 0.00 0.00 0.00 43 1017.0
20260509123222 68 82 2.6 7.8 0.00 0.00 0.00 45 1017.1
20260509122428 69 45 3.5 7.8 0.00 0.00 0.00 45 1017.2
20260509121939 69 123 4.3 7.8 0.00 0.00 0.00 43 1017.2
20260509121715 69 138 3.5 8.7 0.00 0.00 0.00 46 1017.4
20260509120938 68 54 3.5 8.7 0.00 0.00 0.00 44 1017.4
20260509120424 67 21 2.6 7.8 0.00 0.00 0.00 49 1017.4
20260509120220 66 23 3.5 7.8 0.00 0.00 0.00 49 1017.4
20260509115423 66 3 1.7 6.1 0.00 0.00 0.00 46 1017.4
20260509114924 66 0 3.5 7.8 0.00 0.00 0.00 48 1017.5
20260509114422 67 72 2.6 8.7 0.00 0.00 0.00 47 1017.5
20260509113924 68 44 4.3 10.4 0.00 0.00 0.00 44 1017.5
20260509113735 68 42 5.2 10.4 0.00 0.00 0.00 45 1017.5
20260509112920 68 63 2.6 7.8 0.00 0.00 0.00 45 1017.6
20260509112420 67 76 3.5 7.8 0.00 0.00 0.00 48 1017.6
20260509112208 67 0 3.5 7.8 0.00 0.00 0.00 45 1017.7
20260509111712 68 45 4.3 7.8 0.00 0.00 0.00 43 1017.8
20260509110919 68 358 1.7 5.2 0.00 0.00 0.00 44 1017.8
20260509110420 67 344 1.7 5.2 0.00 0.00 0.00 42 1018.0
20260509105919 67 66 2.6 7.8 0.00 0.00 0.00 41 1018.0
20260509105419 68 73 3.5 7.8 0.00 0.00 0.00 43 1018.0
20260509104918 67 68 3.5 8.7 0.00 0.00 0.00 46 1018.1
20260509104419 67 117 4.3 8.7 0.00 0.00 0.00 48 1018.1
20260509103919 66 42 3.5 9.6 0.00 0.00 0.00 47 1018.2
20260509103420 66 35 4.3 9.6 0.00 0.00 0.00 47 1018.1
20260509102918 66 0 3.5 8.7 0.00 0.00 0.00 48 1018.1
20260509102813 67 69 0.0 5.2 0.00 0.00 0.00 49 1018.4
20260509102807 66 42 2.6 7.8 0.00 0.00 0.00 51 1018.3
20260509101418 66 109 1.7 7.8 0.00 0.00 0.00 48 1018.2
20260509100918 66 66 2.6 7.8 0.00 0.00 0.00 50 1018.3
20260509100708 66 51 3.5 7.8 0.00 0.00 0.00 50 1018.3
20260509095916 66 55 5.2 7.8 0.00 0.00 0.00 53 1018.3
20260509095414 66 354 3.5 7.8 0.00 0.00 0.00 55 1018.3
20260509094915 66 54 3.5 8.7 0.00 0.00 0.00 54 1018.4
20260509094415 65 56 5.2 8.7 0.00 0.00 0.00 54 1017.9
20260509093913 65 93 4.3 8.7 0.00 0.00 0.00 53 1017.8
20260509093414 65 51 5.2 8.7 0.00 0.00 0.00 52 1017.9
20260509092914 65 45 1.7 7.8 0.00 0.00 0.00 55 1017.8
20260509092415 65 61 0.9 7.8 0.00 0.00 0.00 53 1017.7
20260509092209 65 52 4.3 7.8 0.00 0.00 0.00 56 1017.7
20260509091415 65 90 2.6 7.8 0.00 0.00 0.00 59 1017.6
20260509090911 64 62 2.6 7.8 0.00 0.00 0.00 57 1017.5
20260509090411 65 75 1.7 6.1 0.00 0.00 0.00 58 1017.3
20260509085912 64 75 0.9 6.1 0.00 0.00 0.00 59 1017.0
20260509085412 64 45 3.5 7.8 0.00 0.00 0.00 57 1017.0
20260509084909 64 55 4.3 7.8 0.00 0.00 0.00 60 1016.8
20260509084519 63 100 4.3 7.8 0.00 0.00 0.00 63 1016.5
20260509084455 64 66 3.5 7.8 0.00 0.00 0.00 60 1016.8
20260509083409 62 90 2.6 5.2 0.00 0.00 0.00 64 1016.4
20260509082909 62 49 1.7 4.3 0.00 0.00 0.00 64 1015.9
20260509082409 62 49 2.6 4.3 0.00 0.00 0.00 66 1015.7
20260509081908 62 31 1.7 4.3 0.00 0.00 0.00 66 1016.0
20260509081412 62 71 1.7 4.3 0.00 0.00 0.00 67 1016.6
20260509080907 61 59 1.7 4.3 0.00 0.00 0.00 68 1018.4
20260509080404 61 48 1.7 5.2 0.00 0.00 0.00 68 1018.5
20260509075906 60 97 2.6 5.2 0.00 0.00 0.00 69 1018.6
20260509075431 60 54 1.7 6.1 0.00 0.00 0.00 70 1018.6
20260509074905 59 45 3.5 6.1 0.00 0.00 0.00 69 1018.5
20260509074403 60 16 1.7 5.2 0.00 0.00 0.00 70 1018.5
20260509073904 59 44 1.7 5.2 0.00 0.00 0.00 71 1018.5
20260509073403 58 54 3.5 4.3 0.00 0.00 0.00 73 1018.6
20260509072904 58 45 0.9 3.5 0.00 0.00 0.00 73 1018.4
20260509072749 58 38 1.7 5.2 0.00 0.00 0.00 75 1018.4
20260509071903 57 58 1.7 5.2 0.00 0.00 0.00 75 1018.4
20260509071403 57 41 1.7 5.2 0.00 0.00 0.00 76 1018.4
20260509070904 56 51 3.5 5.2 0.00 0.00 0.00 76 1018.3
20260509070403 56 58 2.6 6.1 0.00 0.00 0.00 77 1018.4
20260509065902 56 45 2.6 6.1 0.00 0.00 0.00 77 1018.5
20260509065402 55 38 3.5 4.3 0.00 0.00 0.00 77 1018.5
20260509064915 55 42 1.7 3.5 0.00 0.00 0.00 77 1018.5
20260509064403 55 73 0.9 5.2 0.00 0.00 0.00 78 1018.5
20260509063903 55 62 3.5 5.2 0.00 0.00 0.00 77 1018.6
20260509063401 54 66 1.7 4.3 0.00 0.00 0.00 77 1018.5
20260509063145 54 55 2.6 4.3 0.00 0.00 0.00 78 1018.5
20260509062652 54 59 0.9 4.3 0.00 0.00 0.00 79 1018.5
20260509061902 53 44 1.7 4.3 0.00 0.00 0.00 80 1018.5
20260509061405 53 63 1.7 3.5 0.00 0.00 0.00 81 1018.5
20260509060902 53 65 1.7 3.5 0.00 0.00 0.00 82 1018.5
20260509060650 52 89 0.9 3.5 0.00 0.00 0.00 83 1018.5
20260509060200 51 72 0.0 4.3 0.00 0.00 0.00 84 1018.5
20260509055709 51 62 1.7 4.3 0.00 0.00 0.00 85 1018.5
20260509054901 50 58 1.7 4.3 0.00 0.00 0.00 86 1018.5
20260509054404 50 65 0.9 2.6 0.00 0.00 0.00 87 1018.5
20260509053902 49 56 0.0 0.0 0.00 0.00 0.00 88 1018.5
20260509053403 49 11 0.0 0.0 0.00 0.00 0.00 90 1018.4
20260509052902 48 11 0.0 0.0 0.00 0.00 0.00 91 1018.4
20260509052402 47 11 0.0 0.0 0.00 0.00 0.00 91 1018.3
20260509051902 47 11 0.0 0.0 0.00 0.00 0.00 91 1018.3
20260509051402 47 11 0.0 0.0 0.00 0.00 0.00 91 1018.3
20260509051152 46 11 0.0 0.0 0.00 0.00 0.00 92 1018.3
20260509050403 46 10 0.0 0.0 0.00 0.00 0.00 92 1018.3
20260509045902 45 10 0.0 0.0 0.00 0.00 0.00 91 1018.3
20260509045402 44 10 0.0 0.0 0.00 0.00 0.00 91 1018.2
20260509044901 44 10 0.0 0.0 0.00 0.00 0.00 90 1018.2
20260509044402 44 10 0.0 0.0 0.00 0.00 0.00 90 1018.2
20260509043903 44 10 0.0 0.0 0.00 0.00 0.00 90 1018.2
20260509043402 44 10 0.0 0.0 0.00 0.00 0.00 90 1018.2
20260509042904 44 10 0.0 0.0 0.00 0.00 0.00 90 1018.1
20260509042402 44 18 0.0 0.0 0.00 0.00 0.00 90 1018.1
20260509041902 43 21 0.0 0.0 0.00 0.00 0.00 90 1018.1
20260509041414 43 32 0.0 0.0 0.00 0.00 0.00 90 1018.1
20260509040903 43 32 0.0 0.0 0.00 0.00 0.00 89 1018.1
20260509040403 43 32 0.0 0.0 0.00 0.00 0.00 89 1018.1
20260509035904 43 32 0.0 0.0 0.00 0.00 0.00 89 1018.0
20260509035404 43 32 0.0 0.0 0.00 0.00 0.00 89 1018.2
20260509034902 43 32 0.0 0.0 0.00 0.00 0.00 89 1018.1
20260509034650 43 32 0.0 0.0 0.00 0.00 0.00 89 1018.0
20260509034145 44 32 0.0 0.0 0.00 0.00 0.00 89 1018.1
20260509033759 44 32 0.0 0.0 0.00 0.00 0.00 89 1018.0
20260509033753 44 32 0.0 0.0 0.00 0.00 0.00 89 1018.1
20260509032723 44 32 0.0 0.0 0.00 0.00 0.00 89 1018.0
20260509031902 44 32 0.0 0.0 0.00 0.00 0.00 89 1018.1
20260509031700 44 32 0.0 1.7 0.00 0.00 0.00 89 1018.1
20260509030902 44 32 0.0 1.7 0.00 0.00 0.00 89 1018.0
20260509030401 44 32 0.0 1.7 0.00 0.00 0.00 89 1018.2
20260509025904 44 31 0.0 0.0 0.00 0.00 0.00 89 1018.2
20260509025402 44 31 0.0 0.0 0.00 0.00 0.00 89 1018.2
20260509024902 44 31 0.0 1.7 0.00 0.00 0.00 89 1018.3
20260509024700 44 31 0.9 1.7 0.00 0.00 0.00 88 1018.2
20260509023903 44 31 0.0 1.7 0.00 0.00 0.00 88 1018.3
20260509023730 44 30 0.0 0.0 0.00 0.00 0.00 87 1018.3
20260509023721 44 31 0.0 0.0 0.00 0.00 0.00 88 1018.3
20260509022406 44 30 0.0 0.0 0.00 0.00 0.00 87 1018.3
20260509021906 44 30 0.0 0.0 0.00 0.00 0.00 87 1018.3
20260509021404 44 30 0.0 0.0 0.00 0.00 0.00 87 1018.3
20260509020903 44 30 0.0 0.0 0.00 0.00 0.00 87 1018.2
20260509020406 44 30 0.0 0.0 0.00 0.00 0.00 87 1018.3
20260509015902 44 30 0.0 0.0 0.00 0.00 0.00 87 1018.3
20260509015401 45 30 0.0 0.0 0.00 0.00 0.00 87 1018.3
20260509015153 45 30 0.0 0.0 0.00 0.00 0.00 87 1018.3
20260509014401 45 28 0.0 0.0 0.00 0.00 0.00 87 1018.4
20260509013902 45 28 0.0 0.0 0.00 0.00 0.00 86 1018.4
20260509013650 45 28 0.0 0.0 0.00 0.00 0.00 86 1018.5
20260509012902 45 28 0.0 0.0 0.00 0.00 0.00 87 1018.5
20260509012402 45 28 0.0 0.0 0.00 0.00 0.00 86 1018.5
20260509011904 45 28 0.0 0.0 0.00 0.00 0.00 86 1018.5
20260509011402 45 28 0.0 0.0 0.00 0.00 0.00 86 1018.5
20260509010905 45 28 0.0 0.0 0.00 0.00 0.00 85 1018.5
20260509010403 46 28 0.0 0.0 0.00 0.00 0.00 85 1018.5
20260509005903 46 27 0.0 0.0 0.00 0.00 0.00 85 1018.6
20260509005401 46 25 0.0 0.0 0.00 0.00 0.00 85 1018.6
20260509004902 46 25 0.0 0.0 0.00 0.00 0.00 85 1018.6
20260509004406 46 25 0.0 0.0 0.00 0.00 0.00 85 1018.5
20260509003913 46 25 0.0 0.0 0.00 0.00 0.00 86 1018.4
20260509003402 46 27 0.0 0.0 0.00 0.00 0.00 85 1018.6
20260509002902 46 47 0.0 0.0 0.00 0.00 0.00 85 1018.6
20260509002507 46 48 0.0 0.0 0.00 0.00 0.00 85 1018.6
20260509002446 46 48 0.0 0.0 0.00 0.00 0.00 85 1018.6
20260509001403 46 48 0.0 0.0 0.00 0.00 0.00 83 1018.6
20260509000902 47 48 0.0 0.0 0.00 0.00 0.00 83 1018.6
20260509000404 47 48 0.0 0.0 0.00 0.00 0.00 84 1018.5
20260508235903 47 48 0.0 0.0 0.00 0.00 0.00 84 1018.5
20260508235403 47 48 0.0 0.0 0.00 0.00 0.00 84 1018.5
20260508234904 47 48 0.0 0.0 0.00 0.00 0.00 84 1018.5
20260508234404 47 48 0.0 0.0 0.00 0.00 0.00 83 1018.6
20260508233902 47 48 0.0 0.0 0.00 0.00 0.00 82 1018.6
20260508233653 47 48 0.0 0.0 0.00 0.00 0.00 81 1018.7
20260508232914 47 48 0.0 0.0 0.00 0.00 0.00 81 1018.7
20260508232403 48 48 0.0 0.0 0.00 0.00 0.00 81 1018.5
20260508231903 48 48 0.0 0.0 0.00 0.00 0.00 81 1018.5
20260508231716 48 48 0.0 0.0 0.00 0.00 0.00 82 1018.6